Weather History for Charlevoix, MI

Change the Weather History Date:

Tuesday, April 22, 2014

  Actual Average Record
Temperature  
Mean Temperature 37 °F -  
Max Temperature 41 °F 59 °F 82 °F (2007)
Min Temperature 33 °F 34 °F 27 °F (2012)
Degree Days  
Heating Degree Days 28    
Moisture  
Dew Point 33 °F    
Average Humidity 88    
Maximum Humidity 98    
Minimum Humidity 80    
Precipitation  
Precipitation 0.00 in - - ()
Sea Level Pressure  
Sea Level Pressure 29.91 in    
Wind  
Wind Speed 11 mph (WNW)    
Max Wind Speed 20 mph    
Max Gust Speed 28 mph    
Visibility 10 miles    
Events Snow    
Averages and records for this station are not official NWS values.
T = Trace of Precipitation, MM = Missing Value Source: NWS Daily Summary

Daily Weather History Graph

Daily Weather History Graph

Search for Another Location

Airport:

Trip Planner

Search our weather history database for the weather conditions in past years. The results will help you decide how hot, cold, wet, or windy it might be!

Date:

Astronomy

Apr. 22, 2014 Rise Set
Actual Time 6:43 AM EDT 8:36 PM EDT
Civil Twilight 6:12 AM EDT 9:07 PM EDT
Nautical Twilight 5:33 AM EDT 9:46 PM EDT
Astronomical Twilight 4:51 AM EDT 10:28 PM EDT
Moon 2:52 AM EDT (4/22) 1:17 PM EDT (4/22)
Length of Visible Light 14h 55m
Length of Day
13h 52m
Last Quarter, 46% of the Moon is Illuminated
Apr 22
Last Quarter
Apr 29
New
May 6
First Quarter
May 14
Full
May 21
Last Quarter

Hourly Weather History & Observations

Time (EDT) Temp. Windchill Dew Point Humidity Pressure Visibility Wind Dir Wind Speed Gust Speed Precip Events Conditions
12:14 AM 41.2 °F 34.1 °F 40.6 °F 98% 29.82 in 5.0 mi NW 12.7 mph 17.3 mph N/A   Overcast
12:35 AM 40.5 °F 35.1 °F 39.2 °F 95% 29.82 in 10.0 mi WNW 8.1 mph - N/A   Scattered Clouds
12:55 AM 38.8 °F 33.2 °F 37.6 °F 95% 29.83 in 10.0 mi WNW 8.1 mph - N/A   Clear
1:15 AM 37.4 °F 31.4 °F 36.0 °F 95% 29.83 in 10.0 mi West 8.1 mph - N/A   Clear
1:35 AM 37.9 °F 32.1 °F 35.6 °F 91% 29.83 in 10.0 mi WNW 8.1 mph - N/A   Clear
1:55 AM 37.8 °F 31.8 °F 34.5 °F 88% 29.82 in 10.0 mi WNW 8.1 mph - N/A   Scattered Clouds
2:15 AM 37.4 °F 31.4 °F 33.6 °F 86% 29.82 in 10.0 mi WNW 8.1 mph - N/A   Scattered Clouds
2:35 AM 37.0 °F 31.0 °F 33.3 °F 86% 29.82 in 10.0 mi West 8.1 mph - N/A   Clear
2:54 AM 35.6 °F 29.9 °F 32.9 °F 90% 29.82 in 10.0 mi West 6.9 mph - N/A   Clear
3:15 AM 35.6 °F 29.9 °F 32.9 °F 90% 29.82 in 10.0 mi West 6.9 mph - N/A   Clear
3:35 AM 35.6 °F 28.6 °F 32.5 °F 89% 29.82 in 10.0 mi West 9.2 mph - N/A   Clear
3:54 AM 34.9 °F 28.3 °F 32.2 °F 90% 29.82 in 10.0 mi West 8.1 mph - N/A   Clear
4:15 AM 34.9 °F 28.3 °F 32.2 °F 90% 29.82 in 10.0 mi West 8.1 mph - N/A   Scattered Clouds
4:35 AM 35.6 °F 28.6 °F 32.2 °F 87% 29.82 in 10.0 mi West 9.2 mph 17.3 mph N/A   Mostly Cloudy
4:54 AM 35.1 °F 27.4 °F 32.5 °F 91% 29.82 in 10.0 mi West 10.4 mph - N/A   Mostly Cloudy
5:15 AM 35.8 °F 27.8 °F 32.9 °F 89% 29.82 in 10.0 mi West 11.5 mph - N/A   Overcast
5:35 AM 36.5 °F 27.4 °F 32.5 °F 86% 29.82 in 10.0 mi WNW 15.0 mph 21.9 mph N/A   Overcast
6:15 AM 36.5 °F 27.0 °F 32.5 °F 86% 29.83 in 10.0 mi WNW 16.1 mph 23.0 mph N/A   Overcast
6:35 AM 36.0 °F 27.5 °F 32.7 °F 88% 29.83 in 10.0 mi West 12.7 mph 19.6 mph N/A   Overcast
6:54 AM 35.8 °F 26.5 °F 32.9 °F 89% 29.84 in 10.0 mi West 15.0 mph - N/A   Overcast
7:15 AM 35.6 °F 26.6 °F 32.9 °F 90% 29.85 in 7.0 mi WNW 13.8 mph 23.0 mph N/A Snow Light Snow
7:35 AM 35.1 °F 25.9 °F 33.3 °F 93% 29.85 in 4.0 mi WNW 13.8 mph - N/A   Overcast
7:55 AM 34.9 °F 26.2 °F 33.4 °F 94% 29.85 in 10.0 mi West 12.7 mph - N/A   Overcast
8:15 AM 34.9 °F 26.2 °F 33.8 °F 96% 29.85 in 10.0 mi West 12.7 mph - N/A   Overcast
8:35 AM 34.9 °F 24.9 °F 33.8 °F 96% 29.85 in 10.0 mi West 16.1 mph - N/A   Overcast
8:55 AM 34.7 °F 25.5 °F 33.8 °F 97% 29.85 in 10.0 mi WNW 13.8 mph - N/A   Overcast
9:15 AM 34.7 °F 24.7 °F 33.8 °F 97% 29.86 in 7.0 mi WNW 16.1 mph 19.6 mph N/A   Overcast
9:34 AM 34.7 °F 25.1 °F 34.0 °F 97% 29.86 in 5.0 mi WNW 15.0 mph 20.7 mph N/A   Overcast
9:55 AM 34.9 °F 27.1 °F 33.8 °F 96% 29.85 in 10.0 mi WNW 10.4 mph 18.4 mph N/A   Overcast
10:15 AM 34.9 °F 26.2 °F 33.6 °F 95% 29.85 in 10.0 mi WNW 12.7 mph 18.4 mph N/A   Overcast
10:34 AM 35.1 °F 25.5 °F 33.4 °F 94% 29.86 in 10.0 mi WNW 15.0 mph 20.7 mph N/A   Overcast
10:55 AM 35.2 °F 26.2 °F 33.4 °F 93% 29.86 in 10.0 mi WNW 13.8 mph 19.6 mph N/A   Overcast
11:15 AM 35.1 °F 26.4 °F 33.1 °F 92% 29.86 in 10.0 mi WNW 12.7 mph 18.4 mph N/A   Overcast
11:34 AM 35.1 °F 25.9 °F 33.3 °F 93% 29.86 in 10.0 mi WNW 13.8 mph - N/A   Overcast
11:55 AM 35.2 °F 26.2 °F 33.1 °F 92% 29.87 in 10.0 mi WNW 13.8 mph 21.9 mph N/A   Overcast
12:14 PM 35.4 °F 25.3 °F 32.9 °F 91% 29.88 in 10.0 mi WNW 17.3 mph 23.0 mph N/A   Overcast
12:35 PM 35.6 °F 25.5 °F 32.9 °F 90% 29.88 in 10.0 mi WNW 17.3 mph 25.3 mph N/A   Overcast
12:55 PM 35.8 °F 25.1 °F 32.9 °F 89% 29.89 in 10.0 mi WNW 19.6 mph 25.3 mph N/A   Overcast
1:14 PM 35.8 °F 25.7 °F 32.5 °F 88% 29.90 in 10.0 mi WNW 17.3 mph 27.6 mph N/A   Overcast
1:35 PM 35.6 °F 27.1 °F 32.5 °F 89% 29.91 in 10.0 mi WNW 12.7 mph 21.9 mph N/A   Overcast
1:55 PM 35.6 °F 27.5 °F 32.4 °F 88% 29.91 in 10.0 mi WNW 11.5 mph - N/A   Overcast
2:14 PM 36.0 °F 27.1 °F 32.5 °F 87% 29.92 in 10.0 mi NW 13.8 mph 18.4 mph N/A   Overcast
2:35 PM 36.1 °F 27.7 °F 32.4 °F 86% 29.92 in 10.0 mi WNW 12.7 mph - N/A Snow Light Snow
2:55 PM 36.3 °F 28.9 °F 32.5 °F 86% 29.93 in 10.0 mi NW 10.4 mph - N/A   Overcast
3:15 PM 36.7 °F 28.9 °F 32.5 °F 85% 29.93 in 7.0 mi NW 11.5 mph - N/A Snow Light Snow
3:35 PM 36.7 °F 28.4 °F 32.7 °F 86% 29.94 in 10.0 mi WNW 12.7 mph - N/A   Overcast
3:54 PM 37.2 °F 29.6 °F 32.5 °F 83% 29.94 in 10.0 mi WNW 11.5 mph 17.3 mph N/A   Overcast
4:15 PM 37.9 °F 30.5 °F 32.4 °F 80% 29.94 in 10.0 mi WNW 11.5 mph 18.4 mph N/A   Overcast
4:35 PM 37.0 °F 28.9 °F 32.4 °F 83% 29.94 in 10.0 mi NW 12.7 mph 19.6 mph N/A   Overcast
4:54 PM 37.0 °F 29.3 °F 31.8 °F 81% 29.95 in 10.0 mi WNW 11.5 mph - N/A   Overcast
5:15 PM 36.9 °F 29.1 °F 32.0 °F 83% 29.96 in 10.0 mi WNW 11.5 mph 16.1 mph N/A   Overcast
5:34 PM 37.0 °F 29.3 °F 32.0 °F 82% 29.97 in 10.0 mi WNW 11.5 mph 17.3 mph N/A   Overcast
5:55 PM 36.7 °F 28.4 °F 31.6 °F 82% 29.97 in 10.0 mi WNW 12.7 mph 19.6 mph N/A   Overcast
6:15 PM 36.5 °F 28.7 °F 31.1 °F 81% 29.98 in 10.0 mi NW 11.5 mph - N/A   Overcast
6:35 PM 35.8 °F 28.3 °F 31.5 °F 84% 29.99 in 10.0 mi NW 10.4 mph 16.1 mph N/A   Overcast
6:55 PM 36.5 °F 31.0 °F 31.3 °F 81% 29.99 in 10.0 mi NW 6.9 mph - N/A   Overcast
7:14 PM 35.6 °F 28.6 °F 30.9 °F 83% 30.00 in 10.0 mi NW 9.2 mph - N/A   Overcast
7:35 PM 35.6 °F 27.5 °F 30.4 °F 81% 30.00 in 10.0 mi NW 11.5 mph - N/A   Overcast
7:55 PM 35.2 °F 27.6 °F 30.2 °F 82% 30.01 in 10.0 mi NW 10.4 mph - N/A   Overcast
8:15 PM 35.1 °F 27.4 °F 30.2 °F 82% 30.01 in 10.0 mi NW 10.4 mph - N/A   Overcast
8:35 PM 34.9 °F 28.3 °F 30.2 °F 83% 30.02 in 10.0 mi NW 8.1 mph - N/A   Overcast
8:54 PM 34.7 °F 27.5 °F 30.0 °F 83% 30.02 in 10.0 mi NW 9.2 mph - N/A   Overcast
9:15 PM 34.7 °F 27.5 °F 30.0 °F 83% 30.02 in 10.0 mi NW 9.2 mph - N/A   Overcast
9:35 PM 34.7 °F 26.9 °F 30.2 °F 84% 30.03 in 10.0 mi WNW 10.4 mph - N/A   Overcast
9:54 PM 34.7 °F 28.1 °F 30.2 °F 84% 30.04 in 10.0 mi WNW 8.1 mph - N/A   Overcast
10:15 PM 34.7 °F 26.9 °F 30.2 °F 84% 30.04 in 10.0 mi NW 10.4 mph - N/A   Overcast
10:35 PM 34.7 °F 27.5 °F 30.0 °F 83% 30.04 in 10.0 mi NW 9.2 mph 16.1 mph N/A   Overcast
10:54 PM 34.3 °F 26.5 °F 30.0 °F 84% 30.04 in 10.0 mi WNW 10.4 mph - N/A   Overcast
11:15 PM 33.4 °F 25.9 °F 29.5 °F 85% 30.05 in 10.0 mi WNW 9.2 mph - N/A   Scattered Clouds
11:35 PM 33.3 °F 25.7 °F 29.3 °F 85% 30.05 in 10.0 mi NW 9.2 mph - N/A   Clear
11:54 PM 33.6 °F 25.6 °F 29.3 °F 84% 30.05 in 10.0 mi WNW 10.4 mph - N/A   Scattered Clouds